Location: Rathdrum
(47.8130°N, 116.8960°W)
Time: 21:20:34
(UTC-07:00)

Amateur Radio Satellites - All Passes

Search period start: 30 April 2017 20:50
Search period end: 01 May 2017 20:50
Location: Rathdrum, 47.8130°N, 116.8960°W

Satellite Date Start Highest point End Downlink Frequencies (MHz)
Time Altitude Azimuth
O/OREOS (USA 219) 30 Apr 20:54:15 20:56:01 12° 263° (W) 20:57:46 437.305
UWE-3 30 Apr 21:03:31 21:07:08 28° 265° (W) 21:10:44 435.000/436.395/437.385
NO-84 30 Apr 21:25:10 21:28:00 23° 352° (N) 21:30:38 435.350 FM
STRAND 1 30 Apr 21:28:35 21:33:04 32° 296° (WNW) 21:37:32 437.568
CUBEBUG 2 30 Apr 21:29:53 21:30:50 11° 273° (W) 21:31:46 437.445
BEESAT 3 30 Apr 21:33:58 21:37:57 60° 237° (WSW) 21:41:54 437.485
BEESAT 2 30 Apr 21:43:28 21:47:33 72° 51° (NE) 21:51:35 435.950
OBJECT BX 30 Apr 21:44:16 21:47:54 90° 73° (ENE) 21:51:34 145.990 - 145.960
ZACube-1 30 Apr 21:49:20 21:52:01 17° 269° (W) 21:54:43 437.345
AO-73 30 Apr 21:53:21 21:56:00 16° 269° (W) 21:58:41 145.935
Oscar 11 30 Apr 22:02:56 22:05:43 17° 270° (W) 22:08:31 .
M-CUBED/EXP-1 PRIME 30 Apr 22:12:13 22:14:54 17° 307° (NW) 22:17:28 437.505
DELFI C3 30 Apr 22:13:39 22:17:18 34° 264° (W) 22:20:59 145.870
PRISM 30 Apr 22:17:07 22:21:05 41° 99° (E) 22:24:59 437.425
TIGRISAT 30 Apr 22:18:51 22:22:34 28° 95° (E) 22:26:18 435.000
VELOX 1 30 Apr 22:28:44 22:29:09 10° 54° (NE) 22:29:34 145.980
ESTCUBE 1 30 Apr 22:32:20 22:36:18 31° 66° (ENE) 22:40:19 437.505/2401.250
LO-87 30 Apr 22:32:24 22:35:53 45° 72° (ENE) 22:39:22 145.935 - 145.965
FO-29 30 Apr 22:34:55 22:39:46 36° 97° (E) 22:44:53 435.910
UNISAT 6 30 Apr 22:41:15 22:45:27 50° 100° (E) 22:49:41 437.425
SPROUT 30 Apr 22:52:48 22:55:12 15° 60° (ENE) 22:57:36 437.525
NO-84 30 Apr 23:03:25 23:06:13 27° 14° (NNE) 23:08:51 435.350 FM
BEESAT 2 30 Apr 23:22:34 23:24:47 14° 249° (WSW) 23:27:00 435.950
POLYITAN 1 30 Apr 23:32:53 23:35:15 15° 90° (E) 23:37:35 437.675
QB50P2 30 Apr 23:39:19 23:42:15 18° 91° (E) 23:45:12 145.880/145.840
PRISM 30 Apr 23:52:55 23:56:07 22° 297° (WNW) 23:59:17 437.425
UKube-1 30 Apr 23:54:53 23:58:00 20° 61° (ENE) 00:01:07 .
TIGRISAT 30 Apr 23:55:27 23:59:17 32° 292° (WNW) 00:03:10 435.000
NANOSAT C BR1 30 Apr 23:56:01 23:59:22 23° 93° (E) 00:02:41 145.865
AIST 2D 30 Apr 23:58:35 00:02:02 48° 99° (E) 00:05:28 435.315
VELOX 1 01 May 00:00:20 00:04:46 69° 72° (ENE) 00:09:13 145.980
LO-87 01 May 00:07:31 00:09:35 14° 269° (W) 00:11:38 145.935 - 145.965
50 SAT 01 May 00:07:46 00:11:06 43° 71° (ENE) 00:14:27 437.505
ESTCUBE 1 01 May 00:09:02 00:13:04 32° 264° (W) 00:17:10 437.505/2401.250
UNISAT 6 01 May 00:18:45 00:21:51 20° 297° (WNW) 00:24:58 437.425
FO-29 01 May 00:20:11 00:24:55 35° 294° (WNW) 00:29:53 435.910
DUCHIFAT 1 01 May 00:22:44 00:26:40 38° 98° (E) 00:30:33 145.980
SPROUT 01 May 00:26:21 00:30:35 70° 257° (WSW) 00:34:52 437.525
EO-79 01 May 00:26:30 00:30:35 50° 100° (E) 00:34:41 145.935-145.965
DX 1 01 May 00:36:19 00:40:40 66° 72° (ENE) 00:45:02 434.975-435.025
NO-84 01 May 00:40:56 00:43:58 72° 216° (SW) 00:46:50 435.350 FM
BEESAT 01 May 01:04:37 01:06:17 12° 54° (NE) 01:07:58 436.000
BUGSAT 1 01 May 01:04:58 01:08:39 34° 97° (E) 01:12:19 437.445
POLYITAN 1 01 May 01:07:16 01:11:25 61° 288° (WNW) 01:15:34 437.675
PCSat 01 May 01:07:19 01:12:11 35° 112° (ESE) 01:17:06 145.827
Gurwin Techsat 1B 01 May 01:11:49 01:12:25 10° 84° (E) 01:13:00 435.225
QB50P2 01 May 01:14:15 01:18:19 48° 289° (WNW) 01:22:22 145.880/145.840
UKube-1 01 May 01:29:28 01:33:41 51° 259° (W) 01:37:55 .
NANOSAT C BR1 01 May 01:31:19 01:35:12 38° 291° (WNW) 01:39:05 145.865
AIST 2D 01 May 01:32:56 01:34:53 14° 297° (WNW) 01:36:49 435.315
VELOX 1 01 May 01:39:17 01:41:42 14° 271° (W) 01:44:07 145.980
50 SAT 01 May 01:42:20 01:44:15 14° 269° (W) 01:46:12 437.505
ITUPSAT 1 01 May 01:45:55 01:49:48 25° 62° (ENE) 01:53:40 437.325
MOZHAYETS 4 01 May 01:50:57 01:53:23 14° 58° (ENE) 01:55:50
YUBILEINY 01 May 01:55:05 01:56:01 10° 67° (ENE) 01:56:56 435.215
DUCHIFAT 1 01 May 01:58:49 02:02:09 23° 296° (WNW) 02:05:29 145.980
EO-79 01 May 02:03:04 02:06:01 19° 298° (WNW) 02:08:57 145.935-145.965
Oscar 19 01 May 02:06:58 02:12:04 52° 100° (E) 02:17:07 437.125/150
DX 1 01 May 02:14:49 02:17:17 15° 270° (W) 02:19:46 434.975-435.025
BEESAT 01 May 02:38:30 02:43:14 74° 73° (ENE) 02:48:00 436.000
BUGSAT 1 01 May 02:40:38 02:43:52 24° 295° (WNW) 02:47:05 437.445
AO-7 01 May 02:44:13 02:48:49 16° 85° (E) 02:53:23 .
Gurwin Techsat 1B 01 May 02:47:59 02:53:19 71° 103° (ESE) 02:58:37 435.225
PCSat 01 May 02:50:18 02:55:30 45° 313° (NW) 03:00:43 145.827
CUBESAT XI-V 01 May 02:55:40 02:57:42 13° 56° (NE) 02:59:45 437.345
KKS-1 01 May 03:03:43 03:06:15 15° 58° (ENE) 03:08:47 437.445
ITUPSAT 1 01 May 03:22:51 03:27:24 45° 261° (W) 03:31:59 437.325
STARS 01 May 03:23:02 03:24:03 11° 55° (NE) 03:25:05 437.465
MOZHAYETS 4 01 May 03:25:22 03:29:55 82° 257° (WSW) 03:34:32
YUBILEINY 01 May 03:42:17 03:50:35 53° 89° (E) 03:58:57 435.215
ITAMSAT 1 01 May 03:43:45 03:48:34 37° 97° (E) 03:53:21 435.822/435.867
Oscar 19 01 May 03:46:51 03:51:05 26° 299° (WNW) 03:55:19 437.125/150
BEESAT 01 May 04:18:54 04:21:34 15° 271° (W) 04:24:13 436.000
Gurwin Techsat 1B 01 May 04:28:56 04:32:45 20° 302° (WNW) 04:36:32 435.225
CUBESAT XI-V 01 May 04:29:39 04:34:19 84° 76° (ENE) 04:39:03 437.345
AO-7 01 May 04:34:45 04:43:06 71° 106° (ESE) 04:51:25 .
PCSat 01 May 04:37:21 04:40:20 15° 336° (NNW) 04:43:19 145.827
KKS-1 01 May 04:37:46 04:42:14 76° 256° (WSW) 04:46:44 437.445
STARS 01 May 04:55:13 04:59:37 75° 74° (ENE) 05:04:02 437.465
SO-50 01 May 05:12:56 05:17:07 35° 118° (ESE) 05:21:15 436.795
ITAMSAT 1 01 May 05:23:21 05:27:59 34° 296° (WNW) 05:32:36 435.822/435.867
STRAND 1 01 May 05:32:32 05:35:01 14° 54° (NE) 05:37:31 437.568
RS-15 01 May 05:38:49 05:48:55 33° 104° (ESE) 05:59:11 29.354- 29.394
YUBILEINY 01 May 05:39:35 05:47:39 41° 292° (WNW) 05:55:47 435.215
M-CUBED/EXP-1 PRIME 01 May 05:51:57 05:55:20 20° 55° (NE) 05:58:41 437.505
XW-2D 01 May 05:55:09 05:57:07 13° 90° (E) 05:59:04 145.860 - 145.880
KAITUO 1B 01 May 05:59:55 06:01:19 12° 89° (E) 06:02:44 145.475/437.950
XW-2B 01 May 06:01:55 06:04:16 15° 91° (E) 06:06:36 145.730 - 145.750
CUBESAT XI-V 01 May 06:10:19 06:12:20 13° 273° (W) 06:14:21 437.345
ISS 01 May 06:11:15 06:12:35 12° 134° (SE) 06:13:55 437.550
XW-2C 01 May 06:13:37 06:16:34 21° 93° (E) 06:19:30 145.795 - 145.815
LilacSat-2 01 May 06:18:17 06:21:30 24° 94° (E) 06:24:42 437.200
DOVE 4 01 May 06:18:40 06:22:57 39° 96° (E) 06:26:59 437.250
AO-7 01 May 06:28:08 06:35:20 34° 307° (NW) 06:42:31 .
NUDT-PHONESAT 01 May 06:30:43 06:33:51 25° 95° (E) 06:36:58 437.300
STARS 01 May 06:34:30 06:36:29 13° 271° (W) 06:38:29 437.465
XW-2F 01 May 06:34:48 06:38:18 33° 97° (E) 06:41:47 145.980 - 146.000
Tancredo 1 01 May 06:44:02 06:46:42 26° 143° (SE) 06:49:22 437.200
SO-50 01 May 06:53:14 06:57:33 39° 318° (NW) 07:01:50 436.795
CUTE-I 01 May 07:07:25 07:12:43 63° 102° (ESE) 07:17:58 437.470
STRAND 1 01 May 07:08:18 07:13:24 79° 73° (ENE) 07:18:31 437.568
CUTE 1.7 + AOD 2 01 May 07:14:11 07:16:49 16° 90° (E) 07:19:26 437.475
SEEDS 01 May 07:24:38 07:26:42 13° 88° (E) 07:28:46 437.485
M-CUBED/EXP-1 PRIME 01 May 07:24:41 07:29:19 65° 253° (WSW) 07:33:56 437.505
XW-2D 01 May 07:27:53 07:31:38 55° 287° (WNW) 07:35:24 145.860 - 145.880
KAITUO 1B 01 May 07:31:59 07:35:44 63° 287° (WNW) 07:39:29 145.475/437.950
XW-2B 01 May 07:35:02 07:38:43 47° 288° (WNW) 07:42:24 145.730 - 145.750
CUBEBUG 2 01 May 07:38:01 07:39:57 13° 89° (E) 07:41:53 437.445
ISS 01 May 07:45:18 07:48:33 65° 151° (SSE) 07:51:47 437.550
XW-2C 01 May 07:47:21 07:50:51 34° 290° (WNW) 07:54:21 145.795 - 145.815
RS-15 01 May 07:47:55 08:00:07 85° 308° (NW) 08:12:37 29.354- 29.394
LilacSat-2 01 May 07:52:24 07:55:47 30° 292° (WNW) 07:59:11 437.200
HO-68 01 May 07:53:07 07:59:56 44° 98° (E) 08:06:43 435.675
DOVE 4 01 May 07:56:45 08:00:27 25° 297° (WNW) 08:03:58 437.250
NUDT-PHONESAT 01 May 08:04:32 08:07:45 28° 292° (WNW) 08:10:57 437.300
PCSat 01 May 08:08:28 08:12:06 18° 29° (NNE) 08:15:44 145.827
XW-2F 01 May 08:09:17 08:12:16 22° 294° (WNW) 08:15:15 145.980 - 146.000
AAUSAT CUBESAT 2 01 May 08:15:51 08:19:09 22° 93° (E) 08:22:25 437.432
Tancredo 1 01 May 08:19:19 08:22:24 65° 341° (NNW) 08:25:29 437.200
AO-7 01 May 08:23:41 08:25:36 11° 332° (NNW) 08:27:32 .
XW-2A 01 May 08:25:03 08:28:25 90° 74° (ENE) 08:31:47 145.665 - 145.685
SO-50 01 May 08:37:07 08:39:14 13° 340° (NNW) 08:41:21 436.795
CUTE-I 01 May 08:48:17 08:52:20 23° 301° (WNW) 08:56:21 437.470
UWE-3 01 May 08:48:31 08:52:32 42° 98° (E) 08:56:37 435.000/436.395/437.385
CUTE 1.7 + AOD 2 01 May 08:48:47 08:53:01 58° 288° (WNW) 08:57:14 437.475
STRAND 1 01 May 08:50:17 08:53:12 15° 272° (W) 08:56:06 437.568
FO-29 01 May 08:51:51 08:56:24 25° 62° (ENE) 09:00:41 435.910
SEEDS 01 May 08:58:37 09:02:52 69° 286° (WNW) 09:07:06 437.485
PRISM 01 May 09:09:13 09:13:13 47° 70° (ENE) 09:17:14 437.425
CUBEBUG 2 01 May 09:12:51 09:17:01 68° 286° (WNW) 09:21:15 437.445
TIGRISAT 01 May 09:20:40 09:24:37 36° 68° (ENE) 09:28:32 435.000
ISS 01 May 09:22:00 09:25:10 44° 351° (N) 09:28:19 437.550
O/OREOS (USA 219) 01 May 09:28:10 09:32:36 50° 110° (ESE) 09:37:05 437.305
ZACube-1 01 May 09:31:48 09:36:03 70° 102° (ESE) 09:40:23 437.345
AO-73 01 May 09:35:28 09:39:43 70° 102° (ESE) 09:44:02 145.935
HO-68 01 May 09:40:56 09:47:42 45° 298° (WNW) 09:54:26 435.675
UNISAT 6 01 May 09:43:08 09:47:26 66° 73° (ENE) 09:51:41 437.425
Oscar 11 01 May 09:44:33 09:48:55 72° 102° (ESE) 09:53:16 .
DELFI C3 01 May 09:47:16 09:50:31 23° 93° (E) 09:53:44 145.870
AAUSAT CUBESAT 2 01 May 09:50:49 09:54:44 39° 291° (WNW) 09:58:38 437.432
PCSat 01 May 09:51:12 09:56:37 62° 51° (NE) 10:02:00 145.827
Tancredo 1 01 May 09:55:39 09:58:35 38° 1° (N) 10:01:31 437.200
RS-15 01 May 10:03:03 10:14:33 42° 337° (NNW) 10:26:05 29.354- 29.394
UWE-3 01 May 10:25:31 10:28:47 22° 295° (WNW) 10:32:04 435.000/436.395/437.385
POLYITAN 1 01 May 10:28:37 10:31:28 18° 62° (ENE) 10:34:20 437.675
QB50P2 01 May 10:35:03 10:38:19 22° 64° (ENE) 10:41:34 145.880/145.840
FO-29 01 May 10:35:23 10:41:16 58° 259° (W) 10:46:36 435.910
AIST 2D 01 May 10:36:17 10:39:20 29° 69° (ENE) 10:42:24 435.315
OBJECT BX 01 May 10:43:12 10:46:54 73° 104° (ESE) 10:50:32 145.990 - 145.960
PRISM 01 May 10:45:48 10:48:44 19° 268° (W) 10:51:42 437.425
NANOSAT C BR1 01 May 10:51:11 10:54:43 27° 66° (ENE) 10:58:14 145.865
AO-85 01 May 10:53:41 10:56:42 19° 115° (ESE) 10:59:38 145.980
TIGRISAT 01 May 10:57:52 11:01:25 24° 266° (W) 11:04:56 435.000
ISS 01 May 10:58:50 11:02:01 47° 11° (NNE) 11:05:12 437.550
O/OREOS (USA 219) 01 May 11:08:33 11:12:17 24° 309° (NW) 11:16:04 437.305
ZACube-1 01 May 11:09:30 11:11:51 15° 300° (WNW) 11:14:14 437.345
AO-73 01 May 11:13:06 11:15:28 15° 300° (WNW) 11:17:52 145.935
DUCHIFAT 1 01 May 11:17:28 11:21:25 43° 70° (ENE) 11:25:24 145.980
DELFI C3 01 May 11:21:44 11:25:22 34° 291° (WNW) 11:28:59 145.870
EO-79 01 May 11:21:46 11:25:54 58° 72° (ENE) 11:30:03 145.935-145.965
Oscar 11 01 May 11:22:04 11:24:31 15° 301° (WNW) 11:26:59 .
UNISAT 6 01 May 11:22:22 11:24:36 14° 271° (W) 11:26:49 437.425
LO-87 01 May 11:29:24 11:32:42 34° 97° (E) 11:35:57 145.935 - 145.965
HO-68 01 May 11:31:14 11:33:40 12° 320° (NW) 11:36:06 435.675
Tancredo 1 01 May 11:31:38 11:34:44 72° 21° (NNE) 11:37:49 437.200
PCSat 01 May 11:35:18 11:39:36 24° 251° (WSW) 11:43:53 145.827
Oscar 19 01 May 11:50:11 11:53:36 18° 57° (ENE) 11:57:02 437.125/150
ESTCUBE 1 01 May 11:57:23 12:01:43 41° 98° (E) 12:06:00 437.505/2401.250
BUGSAT 1 01 May 11:57:34 12:01:23 38° 69° (ENE) 12:05:11 437.445
SO-50 01 May 12:00:44 12:04:02 19° 30° (NNE) 12:07:18 436.795
AO-7 01 May 12:01:07 12:03:10 11° 28° (NNE) 12:05:12 .
POLYITAN 1 01 May 12:02:47 12:06:53 52° 260° (W) 12:11:01 437.675
SPROUT 01 May 12:09:39 12:12:14 16° 90° (E) 12:14:47 437.525
QB50P2 01 May 12:09:53 12:13:52 41° 261° (W) 12:17:53 145.880/145.840
AIST 2D 01 May 12:09:58 12:12:36 20° 267° (W) 12:15:15 435.315
OBJECT BX 01 May 12:18:57 12:20:02 11° 300° (WNW) 12:21:07 145.990 - 145.960
RS-15 01 May 12:19:52 12:31:07 37° 11° (NNE) 12:42:06 29.354- 29.394
NANOSAT C BR1 01 May 12:26:31 12:30:20 33° 264° (W) 12:34:08 145.865
AO-85 01 May 12:32:42 12:36:47 54° 312° (NW) 12:40:43 145.980
Gurwin Techsat 1B 01 May 12:34:02 12:38:20 26° 61° (ENE) 12:42:38 435.225
ISS 01 May 12:35:22 12:38:35 53° 210° (SSW) 12:41:46 437.550
DUCHIFAT 1 01 May 12:54:12 12:57:17 20° 267° (W) 13:00:24 145.980
EO-79 01 May 12:59:32 13:02:02 15° 270° (W) 13:04:32 145.935-145.965
50 SAT 01 May 13:00:44 13:03:47 28° 97° (E) 13:06:48 437.505
LO-87 01 May 13:03:22 13:05:55 19° 295° (WNW) 13:08:28 145.935 - 145.965
BEESAT 3 01 May 13:03:31 13:07:28 76° 124° (SE) 13:11:29 437.485
Tancredo 1 01 May 13:07:52 13:10:23 23° 219° (SW) 13:12:53 437.200
UKube-1 01 May 13:13:32 13:16:45 20° 93° (E) 13:19:55 .
BEESAT 2 01 May 13:15:06 13:18:50 40° 120° (ESE) 13:22:37 435.950
VELOX 1 01 May 13:23:08 13:27:36 86° 105° (ESE) 13:32:00 145.980
Oscar 19 01 May 13:27:08 13:32:19 79° 256° (WSW) 13:37:33 437.125/150
ITAMSAT 1 01 May 13:28:48 13:31:29 14° 54° (NE) 13:34:11 435.822/435.867
BUGSAT 1 01 May 13:33:43 13:36:53 21° 267° (W) 13:40:03 437.445
ESTCUBE 1 01 May 13:34:35 13:38:19 25° 296° (WNW) 13:42:01 437.505/2401.250
SO-50 01 May 13:40:38 13:45:11 83° 54° (NE) 13:49:41 436.795
SPROUT 01 May 13:44:20 13:48:31 58° 288° (WNW) 13:52:40 437.525
AO-7 01 May 13:46:16 13:53:28 35° 53° (NE) 14:00:39 .
YUBILEINY 01 May 13:47:54 13:55:34 32° 64° (ENE) 14:03:13 435.215
DX 1 01 May 13:57:00 14:01:23 76° 104° (ESE) 14:05:42 434.975-435.025
Gurwin Techsat 1B 01 May 14:12:46 14:17:58 54° 260° (W) 14:23:12 435.225
AO-85 01 May 14:16:11 14:18:02 13° 333° (NNW) 14:19:52 145.980
50 SAT 01 May 14:33:51 14:36:35 22° 294° (WNW) 14:39:17 437.505
RS-15 01 May 14:34:08 14:46:28 66° 43° (NE) 14:58:15 29.354- 29.394
BEESAT 01 May 14:36:31 14:39:06 14° 89° (E) 14:41:41 436.000
BEESAT 3 01 May 14:42:35 14:45:31 19° 326° (NW) 14:48:30 437.485
UKube-1 01 May 14:48:51 14:53:00 46° 291° (WNW) 14:57:07 .
BEESAT 2 01 May 14:53:11 14:56:43 29° 320° (NW) 15:00:16 435.950
VELOX 1 01 May 15:01:19 15:03:24 13° 303° (WNW) 15:05:28 145.980
ITAMSAT 1 01 May 15:04:58 15:10:09 81° 74° (ENE) 15:15:22 435.822/435.867
Oscar 19 01 May 15:10:51 15:12:30 11° 275° (W) 15:14:07 437.125/150
MOZHAYETS 4 01 May 15:17:38 15:20:53 19° 91° (E) 15:24:09
ITUPSAT 1 01 May 15:19:37 15:24:00 35° 97° (E) 15:28:23 437.325
SO-50 01 May 15:22:36 15:25:01 14° 250° (WSW) 15:27:25 436.795
DX 1 01 May 15:34:38 15:37:00 14° 302° (WNW) 15:39:21 434.975-435.025
AO-7 01 May 15:37:28 15:45:43 69° 254° (WSW) 15:54:01 .
YUBILEINY 01 May 15:44:25 15:53:06 69° 267° (W) 16:01:48 435.215
DOVE 4 01 May 15:53:15 15:54:33 11° 54° (NE) 15:55:51 437.250
BEESAT 01 May 16:12:39 16:17:26 76° 287° (WNW) 16:22:12 436.000
CUBESAT XI-V 01 May 16:23:45 16:26:48 17° 89° (E) 16:29:50 437.345
KKS-1 01 May 16:26:21 16:29:05 16° 90° (E) 16:31:49 437.445
XW-2D 01 May 16:40:40 16:42:03 12° 60° (ENE) 16:43:26 145.860 - 145.880
HO-68 01 May 16:43:19 16:45:54 12° 40° (NE) 16:48:29 435.675
STARS 01 May 16:44:06 16:44:37 10° 87° (E) 16:45:09 437.465
XW-2B 01 May 16:47:14 16:49:05 13° 61° (ENE) 16:50:56 145.730 - 145.750
RS-15 01 May 16:47:15 16:58:40 49° 249° (WSW) 17:09:36 29.354- 29.394
ITAMSAT 1 01 May 16:47:18 16:50:16 15° 272° (W) 16:53:14 435.822/435.867
MOZHAYETS 4 01 May 16:53:52 16:58:23 55° 289° (WNW) 17:02:55
CUTE-I 01 May 16:54:19 16:58:28 24° 60° (ENE) 17:02:38 437.470
ITUPSAT 1 01 May 16:57:33 17:01:47 32° 295° (WNW) 17:06:00 437.325
XW-2C 01 May 16:58:39 17:01:10 17° 64° (ENE) 17:03:43 145.795 - 145.815
LilacSat-2 01 May 17:03:45 17:06:35 20° 65° (ENE) 17:09:26 437.200
NUDT-PHONESAT 01 May 17:13:42 17:16:22 19° 65° (ENE) 17:19:04 437.300
XW-2F 01 May 17:19:04 17:22:13 27° 67° (ENE) 17:25:24 145.980 - 146.000
DOVE 4 01 May 17:26:08 17:31:19 62° 72° (ENE) 17:36:20 437.250
AO-7 01 May 17:35:41 17:40:03 15° 275° (W) 17:44:26 .
NO-84 01 May 17:37:45 17:40:49 23° 135° (SE) 17:43:41 435.350 FM
AO-85 01 May 17:41:12 17:42:40 12° 25° (NNE) 17:44:07 145.980
YUBILEINY 01 May 17:43:43 17:48:09 15° 289° (WNW) 17:52:37 435.215
BEESAT 01 May 17:52:34 17:54:24 12° 306° (NW) 17:56:15 436.000
O/OREOS (USA 219) 01 May 17:55:50 17:59:40 25° 51° (NE) 18:03:28 437.305
CUBESAT XI-V 01 May 17:59:56 18:04:37 64° 287° (WNW) 18:09:16 437.345
KKS-1 01 May 18:01:40 18:06:03 61° 288° (WNW) 18:10:25 437.445
CUTE 1.7 + AOD 2 01 May 18:10:10 18:13:02 18° 62° (ENE) 18:15:55 437.475
XW-2D 01 May 18:11:58 18:15:42 71° 258° (WSW) 18:19:29 145.860 - 145.880
KAITUO 1B 01 May 18:14:51 18:18:32 85° 258° (WSW) 18:22:17 145.475/437.950
STARS 01 May 18:17:14 18:21:38 90° 134° (SE) 18:25:59 437.465
XW-2B 01 May 18:19:07 18:22:49 61° 259° (W) 18:26:34 145.730 - 145.750
SEEDS 01 May 18:19:38 18:22:05 15° 60° (ENE) 18:24:32 437.485
HO-68 01 May 18:25:11 18:31:55 46° 62° (ENE) 18:38:41 435.675
XW-2C 01 May 18:31:30 18:35:04 42° 262° (W) 18:38:41 145.795 - 145.815
CUTE-I 01 May 18:32:52 18:38:08 60° 259° (W) 18:43:25 437.470
LilacSat-2 01 May 18:37:10 18:40:39 35° 263° (W) 18:44:11 437.200
CUBEBUG 2 01 May 18:39:13 18:42:00 17° 62° (ENE) 18:44:46 437.445
NUDT-PHONESAT 01 May 18:46:41 18:50:04 35° 263° (W) 18:53:30 437.300
XW-2F 01 May 18:53:10 18:56:19 26° 265° (W) 18:59:31 145.980 - 146.000
ZACube-1 01 May 18:58:50 18:59:16 10° 57° (ENE) 18:59:43 437.345
XW-2A 01 May 18:59:22 19:02:36 48° 73° (ENE) 19:05:51 145.665 - 145.685
DOVE 4 01 May 19:05:29 19:09:20 20° 269° (W) 19:13:07 437.250
AAUSAT CUBESAT 2 01 May 19:09:10 19:12:28 23° 65° (ENE) 19:15:47 437.432
Oscar 11 01 May 19:09:52 19:11:07 11° 57° (ENE) 19:12:23 .
NO-84 01 May 19:14:29 19:18:10 66° 331° (NNW) 19:21:32 435.350 FM
STRAND 1 01 May 19:16:02 19:19:50 21° 91° (E) 19:23:37 437.568
AO-85 01 May 19:20:09 19:23:59 47° 46° (NE) 19:27:56 145.980
O/OREOS (USA 219) 01 May 19:34:55 19:39:19 46° 251° (WSW) 19:43:39 437.305
BEESAT 3 01 May 19:40:09 19:43:23 22° 37° (NE) 19:46:35 437.485
CUTE 1.7 + AOD 2 01 May 19:44:20 19:48:28 54° 260° (W) 19:52:40 437.475
UWE-3 01 May 19:48:38 19:52:41 50° 72° (ENE) 19:56:43 435.000/436.395/437.385
BEESAT 2 01 May 19:52:27 19:55:03 16° 30° (NNE) 19:57:37 435.950
SEEDS 01 May 19:53:06 19:57:16 66° 259° (W) 20:01:30 437.485
STARS 01 May 19:55:27 19:57:18 13° 303° (WNW) 19:59:08 437.465
HO-68 01 May 20:13:01 20:19:42 42° 262° (W) 20:26:28 435.675
CUBEBUG 2 01 May 20:14:05 20:18:16 55° 260° (W) 20:22:24 437.445
ZACube-1 01 May 20:30:42 20:34:51 82° 75° (ENE) 20:39:00 437.345
AO-73 01 May 20:34:02 20:38:10 80° 76° (ENE) 20:42:20 145.935
XW-2A 01 May 20:34:27 20:35:39 12° 270° (W) 20:36:52 145.665 - 145.685
M-CUBED/EXP-1 PRIME 01 May 20:35:02 20:39:02 53° 106° (ESE) 20:42:43 437.505
DELFI C3 01 May 20:35:59 20:39:07 22° 65° (ENE) 20:42:15 145.870
